Flag for Germany Weather past 2 weeks in Moers, North Rhine-Westphalia, Germany

Now
57 °F

Light rain. More clouds than sun.


Feels Like: 56 °F
Forecast: 55 / 69 °F
Wind: 6 mph from Southwest

Location: Duesseldorf

Current Time: Aug 27, 2015 at 9:27:07 PM

Latest Report: Aug 27, 2015 at 8:50 PM


Visibility: N/A

Pressure: 29.89 "Hg

Humidity: 94%

Dew point: 55 °F

Location of MoersLocation

Historic Weather in Moers — Graph

°F

Moers temperature yesterday

Maximum temperature yesterday: 81 °F (at 2:20 PM)
Minimum temperature yesterday: 64 °F (at 12:50 AM)
Average temperature yesterday: 73 °F

Past Weeks' High & Low Weather Summary

 TemperatureHumidityPressure
High86 °F (Aug 13, 3:20 PM)100% (Aug 16, 2:50 AM)30.24 "Hg (Aug 16, 2:50 AM)
Low50 °F (Aug 19, 4:50 AM)30% (Aug 22, 5:20 PM)29.50 "Hg (Aug 24, 4:50 PM)
Average67 °F73%29.93 "Hg
* Reported Aug 12 7:20 PM — Aug 27 7:50 PM, Moers, Weather by CustomWeather, © 2015

Note: Actual official high and low records may vary slightly from our data, if they occured in-between our weather recording intervals... More about our weather records

Advertising

Moers weather history for previous 24 hours

 ConditionsComfort  
Time TempWeatherWind HumidityBarometerVisibility
7:50 PM
Thu, Aug 27
57 °FLight rain. Broken clouds.6 mph94%29.86 "HgN/A
7:20 PM57 °FLight rain. Broken clouds.5 mph94%29.86 "HgN/A
6:50 PM57 °FLight rain. Broken clouds.3 mph94%29.86 "HgN/A
6:20 PM57 °FLight rain. Broken clouds.6 mph94%29.86 "HgN/A
5:50 PM57 °FLight rain. Broken clouds.6 mph94%29.86 "HgN/A
5:20 PM57 °FLight rain. Broken clouds.5 mph94%29.86 "HgN/A
4:50 PM57 °FLight rain. Broken clouds.6 mph94%29.86 "HgN/A
4:20 PM57 °FRain. Broken clouds.7 mph94%29.86 "HgN/A
3:50 PM59 °FLight rain. Broken clouds.7 mph94%29.86 "HgN/A
3:20 PM59 °FLight rain. Broken clouds.7 mph88%29.86 "HgN/A
2:50 PM59 °FLight rain. Broken clouds.9 mph88%29.86 "HgN/A
2:20 PM59 °FLight rain. Broken clouds.17 mph88%29.86 "HgN/A
1:50 PM61 °FLight rain. Broken clouds.16 mph88%29.86 "HgN/A
1:20 PM63 °FLight rain. Broken clouds.9 mph94%29.86 "HgN/A
12:50 PM64 °FRain. Broken clouds.8 mph88%29.86 "HgN/A
12:20 PM64 °FLight rain. Broken clouds.8 mph88%29.86 "HgN/A
11:20 AM66 °FLight rain. Partly sunny.12 mph78%29.86 "HgN/A
10:50 AM66 °FPartly sunny.9 mph83%29.83 "HgN/A
10:20 AM66 °FLight rain. Partly sunny.9 mph88%29.86 "HgN/A
9:50 AM64 °FLight rain. Partly sunny.9 mph88%29.86 "HgN/A
9:20 AM64 °FLight rain. Partly sunny.9 mph88%29.83 "HgN/A
8:50 AM66 °FLight rain. Broken clouds.7 mph88%29.83 "HgN/A
8:20 AM66 °FLight rain. Broken clouds.8 mph83%29.83 "HgN/A
7:50 AM68 °FLight rain. Broken clouds.12 mph78%29.80 "HgN/A
7:20 AM68 °FLight rain. Passing clouds.13 mph78%29.80 "HgN/A
6:50 AM68 °FLight rain. Passing clouds.12 mph78%29.80 "HgN/A
6:20 AM68 °FPassing clouds.14 mph78%29.80 "HgN/A
5:50 AM68 °FClear.16 mph78%29.80 "Hg10 mi
5:20 AM68 °FPartly cloudy.15 mph78%29.77 "HgN/A
4:50 AM68 °FLight rain. Partly cloudy.16 mph78%29.77 "HgN/A
4:20 AM70 °FLight rain. Partly cloudy.10 mph73%29.77 "HgN/A
3:50 AM70 °FPassing clouds.9 mph73%29.77 "HgN/A
3:20 AM70 °FClear.7 mph69%29.77 "Hg10 mi
2:50 AM70 °FClear.6 mph69%29.77 "Hg10 mi
2:20 AM72 °FClear.3 mph65%29.77 "Hg10 mi
1:50 AM73 °FClear.7 mph57%29.77 "Hg10 mi
1:20 AM73 °FPassing clouds.9 mph53%29.77 "HgN/A
12:50 AM75 °FClear.15 mph50%29.74 "Hg10 mi
11:50 PM
Wed, Aug 26
75 °FClear.12 mph50%29.77 "Hg10 mi
11:20 PM75 °FClear.13 mph50%29.77 "Hg10 mi
10:50 PM75 °FClear.16 mph50%29.77 "Hg10 mi
10:20 PM77 °FClear.15 mph47%29.77 "Hg10 mi
9:50 PM77 °FClear.17 mph47%29.77 "Hg10 mi
9:20 PM77 °FSunny.16 mph47%29.77 "Hg10 mi
Weather by CustomWeather, © 2015

See weather overviewHow to use our weather pages